www.pogodaiklimat.ru

Погода и климат >> Архив погоды >> Россия >> Ямало-Ненецкий АО >> Красноселькупск


ПОГОДА в Красноселькупске

  • Прогноз погоды в Красноселькупске
  • Монитор погоды в Красноселькупске

АРХИВ ПОГОДЫ в Красноселькупске

Время (UTC), дата Ветер
(напр.,м/с)
 
Видим.   Явления Облачность Т
(С)
Тd
(С)
f
(%)
Тe
(С)
Тes
(С)
Комфортность P
(гПа)
Po
(гПа)
Тmin
(С)
Tmax
(С)
R
(мм)
R24
(мм)
S
(см)
18 11.01 штиль 0 2000 м дым ясно -44.3 -49.9 53 -44 -44 опасность
обморожения
1020.5 1016.7
21 11.01 штиль 0 2000 м дым ясно -45.0 -50.6 53 -45 -45 опасность
обморожения
1021.8 1018.0
00 12.01 штиль 0 2000 м дым ясно -45.3 -50.9 53 -45 -45 опасность
обморожения
1022.8 1019.0
03 12.01 ЮВ 1 2000 м дым ясно -44.0 -49.5 54 -50 -50 опасность
обморожения
1023.9 1020.1 -45.8 62
06 12.01 Ю 1 2000 м дым 10/0
[]
-43.7 -49.3 54 -49 -49 опасность
обморожения
1024.8 1021.0
09 12.01 ЮВ 2 2000 м дым 10/0
[Ci fib]
-40.4 -45.6 57 -50 -50 опасность
обморожения
1025.6 1021.9
12 12.01 Ю 2 2000 м дым 5/0
[Ci fib]
-37.9 -42.8 60 -47 -47 опасность
обморожения
1026.1 1022.4
15 12.01 Ю 3 20 км 10/8 210 м
[Sc Ac As]
-34.6 -39.1 63 -45 -45 опасность
обморожения
1025.4 1021.8 -34.6
18 12.01 Ю 4 20 км 10/0
[Ac As]
-30.6 -34.6 68 -42 -42 опасность
обморожения
1024.6 1021.0
21 12.01 Ю 5 4000 м слаб. снег {метель} 10/0
[Ac As]
-25.2 -28.5 74 -37 -37 опасность
обморожения
1021.9 1018.4
00 13.01 Ю 6
{12}
4000 м слаб. снег {метель} 10/8 400 м
[Sc Ac As]
-22.3 -25.5 75 -34 -34 опасность
обморожения
1020.1 1016.7
03 13.01 Ю 7-11
{12}
4000 м слаб. снег {метель} 10/8 360 м
[Sc Ac As]
-21.9 -25.1 75 -34 -34 опасность
обморожения
1018.8 1015.4 -34.6 0.7 61
06 13.01 Ю 6-11
{12}
4000 м слаб. снег {метель} 10/5
[Sc Ac As]
-19.8 -22.9 76 -31 -31 опасность
обморожения
1017.1 1013.7
09 13.01 Ю 6
{11}
10 км позёмок {снег} 9/0
[Ac trans Ci fib]
-17.1 -20.0 78 -27 -27 1013.7 1010.4
12 13.01 Ю 6-10
{12}
2000 м слаб. ливневой снег {метель} 10/10 270 м
[Cb cap]
-16.4 -19.3 78 -26 -26 1012.6 1009.3
15 13.01 Ю 6
{11}
2000 м слаб. снег 10/8 420 м
[Cb cap Ac trans]
-15.5 -18.7 76 -25 -25 1011.7 1008.4 -15.5 0.5
18 13.01 ЮВ 4 4000 м слаб. снег 10/8 540 м
[Sc Ac As]
-15.9 -19.1 76 -24 -24 1011.4 1008.1
21 13.01 ЮВ 5 4000 м слаб. снег {метель} 10/8 400 м
[Sc Ac As]
-15.7 -18.8 77 -25 -25 1009.8 1006.5
00 14.01 Ю 4 2000 м слаб. ливневой снег {метель} 10/10 360 м
[Cb cap]
-14.2 -16.9 80 -22 -22 1008.4 1005.1
03 14.01 Ю 4 2000 м слаб. ливневой снег 10/10 210 м
[Cb cap]
-12.4 -14.7 83 -20 -20 1008.0 1004.8 -16.0 1 62
06 14.01 З 4 4000 м слаб. ливневой снег 8/8 300 м
[Cb cap]
-10.2 -12.4 84 -17 -17 1008.7 1005.5
09 14.01 З 4 4000 м слаб. ливневой снег 8/8 300 м
[Cb cap]
-10.2 -12.4 84 -17 -17 1008.7 1005.5
12 14.01 Ю 5 4000 м слаб. ливневой снег 8/8 400 м
[Cb cap]
-7.1 -9.3 84 -15 -15 1009.4 1006.2
15 14.01 Ю 5 20 км в посл. час ливневой снег 9/9 400 м
[Cb cap]
-6.8 -9.1 84 -14 -14 1008.4 1005.2 -6.8 0.8
18 14.01 Ю 5 4000 м слаб. ливневой снег 10/8 450 м
[Cb cap Ac As]
-6.1 -8.3 84 -13 -13 1007.9 1004.7
21 14.01 Ю 4 4000 м слаб. снег 10/0
[Ac As]
-6.3 -8.2 86 -13 -13 1006.8 1003.6
00 15.01 ЮВ 3 2000 м слаб. ливневой снег 10/10 210 м
[Cb cap]
-6.2 -7.8 88 -12 -12 1004.2 1001.0
03 15.01 Ю 3 2000 м слаб. ливневой снег 10/10 270 м
[Cb cap]
-6.3 -8.3 86 -12 -12 1001.2 998.1 -6.8 1 66
06 15.01 Ю 5 2000 м слаб. ливневой снег 10/10 240 м
[Cb cap]
-7.0 -9.5 82 -14 -14 998.5 995.3
09 15.01 Ю 5 2000 м ливневой снег 10/10 240 м
[Cb cap]
-9.2 -11.2 85 -17 -17 997.1 993.9
12 15.01 Ю 4 2000 м слаб. ливневой снег 10/8 400 м
[Cb cap Ac As]
-9.5 -11.3 87 -16 -16 997.0 993.8
15 15.01 З 4 2000 м слаб. ливневой снег 10/8 420 м
[Cb cap Ac As]
-8.9 -10.8 86 -16 -16 998.4 995.2 -6.3 2
18 15.01 З 5
{10}
20 км позёмок {ливн. осадки} 8/8 500 м
[Cb cap]
-11.7 -14.2 82 -20 -20 1002.1 998.9
21 15.01 З 4 20 км позёмок 9/0
[Ac trans]
-15.5 -17.7 83 -23 -23 1005.1 1001.8
00 16.01 З 2 20 км позёмок 9/0
[Ac trans]
-17.5 -19.8 82 -23 -23 1006.5 1003.1
03 16.01 ЮЗ 3 20 км {метель} 9/5 420 м
[Sc Ac trans]
-18.2 -20.7 81 -25 -25 1007.0 1003.6 -18.3 0.3 68
06 16.01 Ю 3 2000 м слаб. снег {метель} 10/4 300 м
[St As trans]
-17.7 -20.2 81 -25 -25 1007.5 1004.1 -18.6
09 16.01 Ю 3 2000 м слаб. снег 10/3 300 м
[Sc As trans]
-16.7 -19.4 80 -24 -24 1007.3 1004.0
12 16.01 Ю 3 2000 м слаб. снег 10/0
[As trans]
-16.0 -18.5 81 -23 -23 1007.6 1004.3
15 16.01 ЮЗ 3 2000 м слаб. ливневой снег 10/8 400 м
[Cb cap As trans]
-16.1 -18.6 81 -23 -23 1008.0 1004.7 -16.0 1
18 16.01 ЮЗ 3 2000 м слаб. ливневой снег 10/8 420 м
[Cb cap As trans]
-16.1 -18.7 80 -23 -23 1009.6 1006.3
21 16.01 З 4 2000 м слаб. ливневой снег 10/8 400 м
[Cb cap As trans]
-17.4 -19.9 81 -26 -26 1011.7 1008.3
00 17.01 З 3 20 км в посл. час ливневой снег 10/8 240 м
[Cb cap As op]
-17.6 -20.0 81 -25 -25 1013.8 1010.4
03 17.01 ЮЗ 2 20 км {ливн. осадки} 10/8 360 м
[Cb cap As trans]
-18.7 -21.2 81 -24 -24 1015.5 1012.1 -18.8 0.4 69
06 17.01 ЮЗ 2 2000 м слаб. снег 10/5 210 м
[St As trans]
-18.9 -21.4 81 -25 -25 1017.2 1013.8 -19.1
09 17.01 Ю 2 20 км {снег} 10/0
[As trans Ci fib]
-20.5 -23.2 79 -26 -26 1017.6 1014.2
12 17.01 Ю 2 20 км {снег} 9/0
[Ac trans]
-17.6 -20.0 81 -23 -23 1017.5 1014.1
15 17.01 Ю 5 2000 м слаб. снег 10/0
[Ac As]
-14.9 -17.2 83 -24 -24 1014.7 1011.4 -14.9 0.3
18 17.01 Ю 5
{11}
2000 м слаб. ливневой снег 10/8 540 м
[Cb cap Ac As]
-12.3 -14.7 82 -20 -20 1012.1 1008.8
21 17.01 Ю 7-11
{14}
20 км позёмок {ливн. осадки} 10/8 330 м
[Sc As trans]
-9.9 -12.2 83 -19 -19 1008.8 1005.6
00 18.01 Ю 7-12
{15}
20 км позёмок {ливн. осадки} 10/3 300 м
[Sc As trans]
-8.4 -11.3 80 -17 -17 1006.6 1003.4
03 18.01 Ю 7-12
{15}
20 км позёмок {ливн. осадки} 10/3 300 м
[Sc As trans]
-8.4 -11.3 80 -17 -17 1006.6 1003.4
06 18.01 Ю 7-13
{15}
2000 м слаб. ливневой снег 10/8 400 м
[Cb cap Ac As]
-8.4 -11.2 80 -17 -17 1002.1 998.9 -8.4
09 18.01 Ю 7-13
{15}
2000 м слаб. ливневой снег 10/8 400 м
[Cb cap Ac As]
-8.4 -11.2 80 -17 -17 1002.1 998.9 -8.4
12 18.01 ЮЗ 7-11
{12}
2000 м слаб. ливневой снег {метель} 10/10 300 м
[Cb cap]
-8.2 -11.0 80 -17 -17 1002.3 999.1

 

Местоположение метеостанции Красноселькупск (Ямало-Ненецкий АО, Россия): широта 65.70 долгота 82.45 высота над уровнем моря 25 м.

В архиве по умолчанию представлена погода в Красноселькупске за последнюю неделю. Архивные данные за месяц целиком и за предыдущие месяцы, начиная с января 2011 года, Вы можете получить, выбрав интересующий диапазон дат из раскрывающегося списка и нажав кнопку "Ввод!".


*Определитесь, кто Вы:
робот инопланетянин человек

Внимание! Время в таблицах - всемирное. Для получения местного времени необходимо прибавить поправку, которая равна 5 ч.

Смотрите также архив погоды в соседних городах и на ближайших метеорологических станциях:

Погода в Советской Речке (Красноярский край, Россия) (138 км)
Погода в Уренгое (Ямало-Ненецкий АО, Россия) (187 км)
Погода в Тольке (Ямало-Ненецкий АО, Россия) (192 км)
Погода в Курейке (Красноярский край, Россия) (231 км)
Погода в Тарко-Сале (Ямало-Ненецкий АО, Россия) (232 км)
Погода в Туруханске (Красноярский край, Россия) (251 км)
Погода в Тазовском (Ямало-Ненецкий АО, Россия) (256 км)
Погода в Новом Уренгое (Ямало-Ненецкий АО, Россия) (261 км)
Погода в Игарке (Красноярский край, Россия) (268 км)
Погода в Верещагино (Красноярский край, Россия) (287 км)

Пояснения к столбцам:

Ветер - указаны скорость ветра в м/с - средняя за 10 мин, порывы в срок и между сроками (в фигурных скобках) и направление, откуда дует ветер: С - северный, СВ - северо-восточный, В - восточный, ЮВ - юго-восточный, Ю - южный, ЮЗ - юго-западный, З - западный, СЗ - северо-западный.
Видимость - горизонтальная дальность видимости в метрах или километрах. При видимости от 1 до 10 км при отсутствии осадков обычно наблюдается дымка, при ухудшении видимости до 1 км и менее - туман. В сухую погоду видимость может ухудшаться дымом, пылью или мглою.
Явления - указаны атмосферные явления, наблюдавшиеся в срок или в последний час перед сроком; фигурными скобками обозначены явления, наблюдавшиеся между сроками (за 1-3 часа до срока); квадратными скобками обозначены град или гололедные отложения с указанием их диаметра в мм.
Облачность - указаны через наклонную черту общая и нижняя облачность в баллах и высота нижней границы облаков в метрах; квадратными скобками обозначены формы облаков: Ci - перистые, Cs - перисто-слоистые, Cc - перисто-кучевые, Ac - высококучевые, As - высокослоистые, Sc - слоисто-кучевые, Ns - слоисто-дождевые, Cu - кучевые, Cb - кучево-дождевые. Подробнее классификацию облаков см. в Атласе облаков (PDF).
T - Температура воздуха - температура, измеренная на высоте 2 м над землей.
Td - Температура точки росы - температура, при понижении до которой содержащийся в воздухе водяной пар достигнет насыщения.
f - Относительная влажность воздуха - влажноcть воздуха, измеренная на высоте 2 м над землей.
Te - Эффективная температура - температура, которую ощущает одетый по сезону человек в тени. Характеристика душности погоды. При расчете учитывается влияние влажности воздуха и скорости ветра на теплоощущения человека.
Tes - Эффективная температура на солнце - температура, которую ощущает человек, с поправкой на солнечный нагрев. Характеристика знойности погоды. Зависит от высоты солнца над горизонтом, облачности и скорости ветра. Ночью, в пасмурную погоду, а также при ветре 12 м/с и более поправка равна нулю.
P - Атмосферное давление - приведенное к уровню моря атмосферное давление.
Po - Атмосферное давление - измеренное на уровне метеостанции атмосферное давление.
Tmin - Минимальная температура - минимум температуры воздуха на высоте 2 м над землей.
Tmax - Максимальная температура - максимум температуры воздуха на высоте 2 м над землей.
R - Количество осадков - Количество выпавших осадков за период времени, мм. При наведении курсора мыши на число - период времени, за который выпало указанное количество осадков.
R24 - Количество осадков - Количество выпавших осадков за 24 часа, мм.
S - Снежный покров - Высота снежного покрова, см. При наведении курсора мыши на число - состояние снежного покрова и степень покрытия местности в баллах.